Regional Weather Roundup
Issued by NWS State College, PA

Home | Current Version | Previous Version | Text Only | Print | Product List | Glossary On
Versions: 1 2 3 4 5 6 7 8 9 10 11 12 13 14 15 16 17 18 19 20 21 22 23 24 25 26 27 28 29 30 31 32 33 34 35 36 37 38 39 40 41 42 43 44 45 46 47 48 49 50
000
ASUS41 KCTP 101410
RWRCTP

REGIONAL WEATHER ROUNDUP
NATIONAL WEATHER SERVICE STATE COLLEGE PA
1000 AM EDT THU JUL 10 2014

Note: "fair" indicates few or no clouds below 12,000 feet with no
significant weather and/or obstructions to visibility.

* = STATION THAT DOES NOT REPORT PRECIPITATION /E.G. RAIN...SNOW...ETC/
    THUNDER OR FOG.

PAZ002>004-007>009-013>016-020>023-029>032-101500-
WESTERN PENNSYLVANIA

CITY           SKY/WX    TMP DP  RH WIND       PRES   REMARKS
ERIE           PTSUNNY   70  53  54 E7        30.15S
MEADVILLE      SUNNY     68  54  60 NE6       30.16R
FRANKLIN*      PTSUNNY   66  55  68 NE5       30.17S
NEW CASTLE     NOT AVBL
BEAVER COUNTY  NOT AVBL
BUTLER*        SUNNY     70  59  68 NE6       30.15R
PITTSBURGH INT PTSUNNY   70  60  70 E6        30.12S
PITTSBURGH     MOSUNNY   75  59  57 CALM      30.11S
INDIANA*       SUNNY     72  61  68 VRB6      30.17S
LATROBE        PTSUNNY   72  64  78 CALM      30.13R
WASHINGTON CO* SUNNY     73  61  64 CALM      30.13R
$$

PAZ004>006-010>012-017>019-024>028-033>037-041-042-045-046-049>053-101500-
CENTRAL PENNSYLVANIA

CITY           SKY/WX    TMP DP  RH WIND       PRES   REMARKS
BRADFORD       SUNNY     64  53  67 E6        30.18S
DUBOIS         SUNNY     68  58  70 E5        30.16R
CLEARFIELD     PTSUNNY   66  61  84 E7        30.16R
JOHNSTOWN      SUNNY     69  60  73 CALM      30.15S
ALTOONA        SUNNY     72  64  76 NE6       30.14S
STATE COLLEGE  MOSUNNY   68  61  77 NE7       30.15S
WILLIAMSPORT   SUNNY     71  60  68 CALM      30.12S
SELINSGROVE    SUNNY     74  61  63 CALM      30.13R
FT INDIANTOWN  SUNNY     76  62  60 N5        30.11S
CAPITAL CITY   MOSUNNY   76  61  59 E8        30.10S
HARRISBURG     MOSUNNY   78  62  57 NE6       30.09S
YORK           MOSUNNY   77  62  59 NE8       30.10S
$$

PAZ038>040-043-044-047-048-054-055-060>062-067>071-101500-
EASTERN PENNSYLVANIA

CITY           SKY/WX    TMP DP  RH WIND       PRES   REMARKS
SCRANTON       SUNNY     72  56  57 NE8       30.13S
MOUNT POCONO   MOSUNNY   67  57  70 NE6       30.16R
ALLENTOWN      PTSUNNY   73  64  73 NE9       30.12R
QUAKERTOWN*    PTSUNNY   75  63  64 NE5       30.11S
READING        PTSUNNY   76  63  64 N7        30.09S
LANCASTER      PTSUNNY   74  64  71 NE8       30.10R
COATESVILLE    PTSUNNY   73  63  68 NE5       30.11R
POTTSTOWN      PTSUNNY   75  63  66 NE7       30.11S
BLUE BELL      PTSUNNY   77  64  65 E7        30.09S
DOYLESTOWN     PTSUNNY   76  65  68 N7        30.10S
WILLOW GROVE   NOT AVBL
NORTH PHILA    CLOUDY    78  62  57 NE9       30.11R
PHILADELPHIA   CLOUDY    78  60  53 NE12      30.09R
$$


USA.gov is the U.S. government's official web portal to all federal, state and local government web resources and services.